カタログに戻る

COSMOS 2251 DEB

運用中LEO
NORAD 33799·DEBRIS·🇷🇺 Russia

打ち上げ Jun 16, 1993 から Plesetsk Cosmodrome

Loading…

次のパス (今後24時間)

TLE

最新Source: Space-Track

元期: Sep 14, 2026, 08:41 UTC

1 33799U 93036AQ  26257.36227147  .00008518  00000-0  95941-3 0  9999
2 33799  74.0300 255.8568 0026450 262.1001 164.1157 14.86506205928983

AllMySatでCOSMOS 2251 DEBをリアルタイム追跡

Download on the App Store